www.pogodaiklimat.ru

Погода и климат >> Архив погоды >> Алжир >> Алжир


АРХИВ ПОГОДЫ в Алжире

Время (UTC), дата Ветер
(напр.,м/с)
 
Видим.   Явления Облачность Т
(С)
Тd
(С)
f
(%)
Тe
(С)
Тes
(С)
Комфортность P
(гПа)
Po
(гПа)
Тmin
(С)
Tmax
(С)
R
(мм)
R24
(мм)
S
(см)
15 15.08 С 3 10 км ясно +27.0 +22.0 74 +35 +43 очень
душно
1016.5 1015.1
18 15.08 СВ 2 10 км ясно +26.4 +21.9 76 +34 +34 очень
душно
1016.3 1014.9 +27.8
21 15.08 СВ 2 10 км ясно +25.9 +22.3 81 +34 +34 очень
душно
1016.3 1014.9
00 16.08 С 1 10 км ясно +25.8 +21.5 77 +33 +33 очень
душно
1015.6 1014.2
03 16.08 штиль 0 10 км ясно +24.9 +20.8 78 +31 +31 очень
душно
1014.7 1013.3
06 16.08 С 1 8000 м ясно +25.8 +19.9 70 +32 +32 очень
душно
1015.8 1014.4 +24.3
09 16.08 штиль 0 10 км ясно +26.6 +18.0 59 +31 +46 душно 1016.4 1015.0
12 16.08 СВ 3 10 км ясно +26.4 +23.5 84 +36 +51 опасность
солнечного
удара
1016.2 1014.8
15 16.08 СВ 3 10 км ясно +26.9 +23.0 79 +36 +44 очень
душно
1015.0 1013.6
18 16.08 С 2 10 км ясно +26.6 +22.8 80 +35 +36 очень
душно
1014.4 1013.0 +27.7
21 16.08 С 2 10 км ясно +25.8 +22.9 84 +34 +34 очень
душно
1014.9 1013.5
00 17.08 штиль 0 9000 м ясно +25.4 +23.2 88 +34 +34 очень
душно
1014.5 1013.1
03 17.08 штиль 0 8000 м ясно +25.1 +22.8 87 +33 +33 очень
душно
1013.3 1011.9
06 17.08 штиль 0 9000 м ясно +26.1 +21.7 77 +34 +34 очень
душно
1013.2 1011.8 +24.6
09 17.08 С 2 9000 м ясно +26.8 +22.1 75 +35 +46 очень
душно
1014.7 1013.3
12 17.08 С 2 9000 м ясно +27.7 +23.5 78 +38 +56 опасность
солнечного
удара
1014.4 1013.0
15 17.08 С 2 9000 м ясно +27.7 +24.4 82 +39 +49 очень
душно
1013.3 1011.9
18 17.08 С 2 9000 м ясно +27.2 +23.5 80 +37 +37 очень
душно
1011.2 1009.8 +28.2
21 17.08 С 2 9000 м ясно +26.2 +23.2 84 +35 +35 очень
душно
1011.5 1010.1
00 18.08 С 3 9000 м ясно +26.3 +22.5 80 +35 +35 очень
душно
1010.8 1009.4
03 18.08 С 1 9000 м ясно +25.7 +23.1 86 +34 +34 очень
душно
1009.0 1007.6
06 18.08 С 1 9000 м ясно +25.6 +22.2 82 +33 +34 очень
душно
1009.1 1007.7 +25.2
09 18.08 С 2 8000 м ясно +28.3 +23.7 76 +39 +51 опасность
солнечного
удара
1010.2 1008.8
12 18.08 В 2 9000 м ясно +32.6 +21.6 52 +41 +59 опасность
перегрева
1010.4 1009.0
15 18.08 В 2 10 км ясно +33.9 +23.1 53 +44 +53 опасность
перегрева
1009.6 1008.3
18 18.08 СЗ 1 10 км ясно +30.1 +23.5 68 +41 +41 опасность
перегрева
1010.0 1008.6 +35.0
21 18.08 СЗ 1 10 км 1/0
[Ac cast]
+27.4 +24.0 82 +38 +38 очень
душно
1011.4 1010.0
00 19.08 СЗ 2 8000 м 1/1 800 м
[Cu hum]
+26.4 +23.6 85 +36 +36 очень
душно
1012.1 1010.7
03 19.08 СЗ 2 9000 м 4/4 700 м
[Cu hum]
+26.3 +23.2 83 +35 +35 очень
душно
1012.2 1010.8
06 19.08 З 2 8000 м 6/6 700 м
[Cu hum]
+26.1 +22.7 82 +35 +35 очень
душно
1013.2 1011.8 +25.9
09 19.08 ЮЗ 3 8000 м 5/5 700 м
[Cu hum]
+27.1 +23.3 80 +37 +42 очень
душно
1013.6 1012.2
12 19.08 СВ 3 8000 м ясно +27.7 +23.2 77 +37 +54 опасность
солнечного
удара
1013.7 1012.3
15 19.08 С 4 8000 м ясно +27.6 +23.9 80 +38 +44 очень
душно
1013.4 1012.0
18 19.08 СВ 2 9000 м ясно +26.6 +23.4 83 +36 +36 очень
душно
1012.9 1011.5 +28.3
21 19.08 СВ 2 10 км 1/1 700 м
[Cu hum]
+26.2 +24.1 88 +36 +36 очень
душно
1013.1 1011.7
00 20.08 С 1 9000 м 6/6 700 м
[Cu hum]
+26.1 +24.2 89 +36 +36 очень
душно
1012.4 1011.0
03 20.08 С 1 8000 м 6/6 700 м
[Cu hum]
+25.7 +24.1 91 +36 +36 очень
душно
1010.8 1009.4
06 20.08 ЮВ 1 7000 м ясно +25.8 +23.0 85 +34 +35 очень
душно
1012.4 1011.0 +24.3
09 20.08 С 2 9000 м 1/0
[Ci sp]
+27.3 +24.2 83 +38 +49 очень
душно
1013.4 1012.0
12 20.08 С 4 9000 м ясно +28.4 +24.3 78 +40 +52 опасность
солнечного
удара
1013.6 1012.2
15 20.08 С 4 10 км 3/3 700 м
[Cu med, cong]
+27.9 +24.2 80 +39 +43 очень
душно
1014.4 1013.0
18 20.08 СВ 2 9000 м 5/5 700 м
[Cu med, cong]
+27.3 +24.2 83 +38 +38 очень
душно
1015.1 1013.7 +28.8
21 20.08 СВ 5 10 км 4/4 700 м
[Cu med, cong]
+26.8 +24.2 86 +37 +37 очень
душно
1016.1 1014.7
00 21.08 СВ 7 10 км 5/5 700 м
[Cu med, cong]
+26.5 +24.4 88 +37 +37 очень
душно
1015.6 1014.2
03 21.08 СВ 7 9000 м 6/6 700 м
[Cu med, cong]
+26.4 +23.7 85 +36 +36 очень
душно
1015.8 1014.4
06 21.08 СВ 8 9000 м 5/5 700 м
[Cu med, cong Ac cast]
+26.5 +23.9 86 +37 +37 очень
душно
1016.1 1014.7 +26.3
09 21.08 СВ 6 9000 м 9/8 700 м
[Cu med, cong Ac cast]
+26.6 +24.3 87 +37 +38 очень
душно
1016.4 1015.0
12 21.08 С 7 8000 м 8/5 700 м
[Cu med, cong Ac cast]
+26.8 +24.4 87 +38 +39 очень
душно
1015.5 1014.1
15 21.08 С 8 9000 м 9/5 700 м
[Cu med, cong Ac cast]
+26.5 +24.2 87 +37 +37 очень
душно
1014.6 1013.2
18 21.08 С 6 9000 м 8/5 800 м
[Cu med, cong Ac cast]
+26.3 +24.2 88 +37 +37 очень
душно
1013.9 1012.5 +26.9
21 21.08 С 6 9000 м 8/5 800 м
[Cu med, cong Ac cast]
+26.2 +23.9 87 +36 +36 очень
душно
1015.3 1013.9
00 22.08 С 5 9000 м 6/5 800 м
[Cu med, cong Ac cast]
+25.9 +23.6 87 +35 +35 очень
душно
1015.6 1014.2
03 22.08 С 5 9000 м 6/5 800 м
[Cu med, cong Ac cast]
+25.5 +22.4 83 +33 +33 очень
душно
1015.2 1013.8
06 22.08 СВ 3 9000 м 8/5 800 м
[Cu med, cong Ac cast]
+25.6 +21.8 80 +33 +33 очень
душно
1016.7 1015.3 +25.4
09 22.08 С 2 10 км 8/4 700 м
[Cu hum Ac cast]
+25.9 +21.2 75 +33 +36 очень
душно
1017.7 1016.3

 

Местоположение метеостанции Алжир (Алжир): широта 36.77 долгота 3.10 высота над уровнем моря 12 м.

В архиве по умолчанию представлена погода в Алжире за последнюю неделю. Архивные данные за месяц целиком и за предыдущие месяцы, начиная с января 2011 года, Вы можете получить, выбрав интересующий диапазон дат из раскрывающегося списка и нажав кнопку "Ввод!".


*Определитесь, кто Вы:
робот инопланетянин человек

Внимание! Время в таблицах - всемирное. Для получения местного времени необходимо прибавить поправку, которая равна 1 ч.

Смотрите также архив погоды в соседних городах и на ближайших метеорологических станциях:

Погода Алжир аэропорт (Алжир) (15 км)
Погода в Медеа (Алжир) (64 км)
Погода в Айн-Бессеме (Алжир) (75 км)
Погода в Деллисе (Алжир) (77 км)
Погода в Буире (Алжир) (82 км)
Погода в Тизи-Узу (Алжир) (85 км)
Погода в Мильяне (Алжир) (94 км)
Погода в Тенесе (Алжир) (161 км)
Погода в Бордж-Бу-Арреридже (Алжир) (169 км)
Погода в Шлефе (Алжир) (170 км)

Пояснения к столбцам:

Ветер - указаны скорость ветра в м/с - средняя за 10 мин, порывы в срок и между сроками (в фигурных скобках) и направление, откуда дует ветер: С - северный, СВ - северо-восточный, В - восточный, ЮВ - юго-восточный, Ю - южный, ЮЗ - юго-западный, З - западный, СЗ - северо-западный.
Видимость - горизонтальная дальность видимости в метрах или километрах. При видимости от 1 до 10 км при отсутствии осадков обычно наблюдается дымка, при ухудшении видимости до 1 км и менее - туман. В сухую погоду видимость может ухудшаться дымом, пылью или мглою.
Явления - указаны атмосферные явления, наблюдавшиеся в срок или в последний час перед сроком; фигурными скобками обозначены явления, наблюдавшиеся между сроками (за 1-3 часа до срока); квадратными скобками обозначены град или гололедные отложения с указанием их диаметра в мм.
Облачность - указаны через наклонную черту общая и нижняя облачность в баллах и высота нижней границы облаков в метрах; квадратными скобками обозначены формы облаков: Ci - перистые, Cs - перисто-слоистые, Cc - перисто-кучевые, Ac - высококучевые, As - высокослоистые, Sc - слоисто-кучевые, Ns - слоисто-дождевые, Cu - кучевые, Cb - кучево-дождевые. Подробнее классификацию облаков см. в Атласе облаков (PDF).
T - Температура воздуха - температура, измеренная на высоте 2 м над землей.
Td - Температура точки росы - температура, при понижении до которой содержащийся в воздухе водяной пар достигнет насыщения.
f - Относительная влажность воздуха - влажноcть воздуха, измеренная на высоте 2 м над землей.
Te - Эффективная температура - температура, которую ощущает одетый по сезону человек в тени. Характеристика душности погоды. При расчете учитывается влияние влажности воздуха и скорости ветра на теплоощущения человека.
Tes - Эффективная температура на солнце - температура, которую ощущает человек, с поправкой на солнечный нагрев. Характеристика знойности погоды. Зависит от высоты солнца над горизонтом, облачности и скорости ветра. Ночью, в пасмурную погоду, а также при ветре 12 м/с и более поправка равна нулю.
P - Атмосферное давление - приведенное к уровню моря атмосферное давление.
Po - Атмосферное давление - измеренное на уровне метеостанции атмосферное давление.
Tmin - Минимальная температура - минимум температуры воздуха на высоте 2 м над землей.
Tmax - Максимальная температура - максимум температуры воздуха на высоте 2 м над землей.
R - Количество осадков - Количество выпавших осадков за период времени, мм. При наведении курсора мыши на число - период времени, за который выпало указанное количество осадков.
R24 - Количество осадков - Количество выпавших осадков за 24 часа, мм.
S - Снежный покров - Высота снежного покрова, см. При наведении курсора мыши на число - состояние снежного покрова и степень покрытия местности в баллах.